Location: Nasgenstadt
(48.2786°N, 9.7553°E)
Time: 15:53:52
(UTC+02:00)

ISS - Pass Details

Date: 18 May 2021
Orbit: 419 x 422 km, 51.6° (Epoch: 25 June)

Event Time Altitude Azimuth Distance (km) Brightness Sun altitude
Rises 22:44:00 0° 259° (W) 2,366 0.4 -13.8°
Reaches altitude 10° 22:46:07 10° 263° (W) 1,504 -0.6 -14.0°
Maximum altitude 22:49:28 62° 345° (NNW) 480 -3.2 -14.4°
Drops below altitude 10° 22:52:50 10° 67° (ENE) 1,509 -1.1 -14.7°
Enters shadow 22:55:43 -3° 71° (ENE) 2,691 0.2 -15.0°
